Location: ??????
(30.5519°N, 47.7720°E)
Time: 18:08:16
(UTC+00:00)

Cosmos 1937 Rocket - Pass Details

Date: 24 January 2021
Orbit: 746 x 780 km, 74.0° (Epoch: 02 March)

Event Time Altitude Azimuth Distance (km) Brightness Sun altitude
Rises 14:35:06 0° 172° (S) 3,229 6.9 -4.2°
Reaches altitude 10° 14:37:39 10° 163° (SSE) 2,311 6.0 -4.8°
Maximum altitude 14:42:20 33° 100° (E) 1,273 4.2 -5.7°
Drops below altitude 10° 14:47:03 10° 37° (NE) 2,333 5.5 -6.7°
Sets 14:49:38 0° 28° (NNE) 3,265 6.3 -7.2°
